Overview Statistics Trail Chart Weather Telemetry Raw packets
 

This is the latest recevied weather packets stored in our database for station/object W6MAF. If no packets are shown the sender has not sent any weather packets the latest 10 day(s).

<< 66 67 68 69 70 71 72 >>
Time Temp. Humidity Pressure Rain* Wind** Luminosity Snow
1788193367 23.89° C 15% - 0 mm 4.02 m/s, 207° - -
1788193069 23.89° C 16% - 0 mm 3.13 m/s, 184° - -
1788192779 23.89° C 19% - 0 mm 3.13 m/s, 207° - -
1788192474 23.33° C 21% - 0 mm 3.58 m/s, 224° - -
1788192176 22.78° C 23% - 0 mm 4.02 m/s, 233° - -
1788191875 22.78° C 28% - 0 mm 2.68 m/s, 229° - -
1788191577 22.22° C 29% - 0 mm 3.13 m/s, 205° - -
1788190982 21.67° C 32% - 0 mm 3.58 m/s, 238° - -
1788190684 21.67° C 33% - 0 mm 3.58 m/s, 208° - -
1788190387 21.11° C 35% - 0 mm 4.02 m/s, 225° - -
1788190086 20.56° C 39% - 0 mm 2.24 m/s, 232° - -
1788189788 20.56° C 41% - 0 mm 4.47 m/s, 236° - -
1788189490 20.56° C 43% - 0 mm 3.58 m/s, 238° - -
1788189193 20° C 45% - 0 mm 3.13 m/s, 243° - -
1788188895 20° C 47% - 0 mm 3.13 m/s, 260° - -
1788188597 19.44° C 49% - 0 mm 3.58 m/s, 235° - -
1788188296 18.89° C 52% - 0 mm 4.02 m/s, 235° - -
1788187999 18.89° C 56% - 0 mm 4.02 m/s, 238° - -
1788187403 18.33° C 62% - 0 mm 4.02 m/s, 236° - -
1788187106 17.78° C 64% - 0 mm 4.02 m/s, 235° - -
1788186808 17.78° C 67% - 0 mm 2.68 m/s, 238° - -
1788186507 17.78° C 69% - 0 mm 2.24 m/s, 233° - -
1788186209 17.78° C 71% - 0 mm 0.89 m/s, 212° - -
1788185912 17.22° C 72% - 0 mm 2.68 m/s, 222° - -
1788185614 17.22° C 73% - 0 mm 2.24 m/s, 255° - -

* Rain latest hour (hover to see other rain measurements)
** Current wind speed in m/s (hover to see current wind gust speed)